EUTELSAT HOTBIRD 13F

Last updated on Wed Sep 17 2025 00:02:51 GMT+0000 (Coordinated Universal Time)

1 54048U 22134A 25258.87265726 .00000070 00000+0 00000+0 0 9993 2 54048 0.0625 287.6546 0001895 72.7045 321.8833 1.00273989 10628
UTC large
Height (km)
Speed (km/s)
/
Latitude / Longitude
Inclination (degrees)
Orbital Period (minutes)
Azimuth
Elevation
Range (km)
Doppler Factor

Next 0 passes for location: London (51.5072 / 0.1276)

Sorry there are no passes over London.